TimeCDT,TemperatureF,Dew PointF,Humidity,Sea Level PressureIn,VisibilityMPH,Wind Direction,Wind SpeedMPH,Gust SpeedMPH,PrecipitationIn,Events,Conditions,WindDirDegrees,DateUTC
12:15 AM,42.8,24.8,49,30.28,10.0,ENE,4.6,-,N/A,,Overcast,60,2013-03-29 05:15:00
12:35 AM,42.8,24.8,49,30.28,10.0,ENE,4.6,-,N/A,,Overcast,60,2013-03-29 05:35:00
12:55 AM,42.8,26.6,53,30.28,10.0,ENE,4.6,-,N/A,,Overcast,70,2013-03-29 05:55:00
1:15 AM,42.8,26.6,53,30.28,10.0,ENE,4.6,-,N/A,,Overcast,70,2013-03-29 06:15:00
1:35 AM,42.8,26.6,53,30.27,10.0,ENE,4.6,-,N/A,,Mostly Cloudy,70,2013-03-29 06:35:00
1:55 AM,39.2,26.6,61,30.27,10.0,East,5.8,-,N/A,,Scattered Clouds,90,2013-03-29 06:55:00
2:15 AM,39.2,28.4,65,30.27,10.0,ENE,3.5,-,N/A,,Clear,70,2013-03-29 07:15:00
2:35 AM,39.2,28.4,65,30.26,10.0,ENE,5.8,-,N/A,,Clear,70,2013-03-29 07:35:00
2:55 AM,39.2,28.4,65,30.25,10.0,East,6.9,-,N/A,,Clear,90,2013-03-29 07:55:00
3:15 AM,39.2,28.4,65,30.25,10.0,East,5.8,-,N/A,,Clear,90,2013-03-29 08:15:00
3:35 AM,39.2,28.4,65,30.25,10.0,East,6.9,-,N/A,,Clear,80,2013-03-29 08:35:00
3:55 AM,39.2,26.6,61,30.25,10.0,East,5.8,-,N/A,,Clear,80,2013-03-29 08:55:00
4:15 AM,39.2,28.4,65,30.24,10.0,ENE,5.8,-,N/A,,Clear,70,2013-03-29 09:15:00
4:35 AM,39.2,28.4,65,30.24,10.0,ENE,5.8,-,N/A,,Clear,70,2013-03-29 09:35:00
4:55 AM,39.2,28.4,65,30.24,10.0,East,5.8,-,N/A,,Clear,80,2013-03-29 09:55:00
5:15 AM,39.2,28.4,65,30.24,10.0,ENE,4.6,-,N/A,,Clear,70,2013-03-29 10:15:00
5:35 AM,37.4,26.6,65,30.24,10.0,ENE,5.8,-,N/A,,Clear,70,2013-03-29 10:35:00
5:55 AM,37.4,26.6,65,30.25,10.0,East,5.8,-,N/A,,Clear,80,2013-03-29 10:55:00
6:15 AM,39.2,26.6,61,30.24,10.0,East,6.9,-,N/A,,Clear,100,2013-03-29 11:15:00
6:35 AM,39.2,28.4,65,30.25,10.0,ESE,9.2,-,N/A,,Clear,110,2013-03-29 11:35:00
6:55 AM,39.2,26.6,61,30.26,10.0,ESE,6.9,-,N/A,,Clear,110,2013-03-29 11:55:00
7:15 AM,39.2,26.6,61,30.26,10.0,East,9.2,-,N/A,,Clear,100,2013-03-29 12:15:00
7:35 AM,39.2,28.4,65,30.27,10.0,East,6.9,-,N/A,,Clear,100,2013-03-29 12:35:00
7:55 AM,39.2,28.4,65,30.27,10.0,East,4.6,-,N/A,,Clear,80,2013-03-29 12:55:00
8:15 AM,42.8,28.4,57,30.27,10.0,East,5.8,-,N/A,,Clear,100,2013-03-29 13:15:00
8:35 AM,42.8,30.2,61,30.28,10.0,East,5.8,-,N/A,,Clear,90,2013-03-29 13:35:00
8:55 AM,44.6,30.2,57,30.28,10.0,East,6.9,-,N/A,,Clear,100,2013-03-29 13:55:00
9:15 AM,44.6,30.2,57,30.28,10.0,East,6.9,-,N/A,,Clear,100,2013-03-29 14:15:00
9:35 AM,46.4,30.2,53,30.28,10.0,East,6.9,-,N/A,,Clear,90,2013-03-29 14:35:00
9:55 AM,48.2,30.2,50,30.28,10.0,East,8.1,-,N/A,,Clear,90,2013-03-29 14:55:00
10:15 AM,50.0,32.0,50,30.28,10.0,East,8.1,-,N/A,,Clear,90,2013-03-29 15:15:00
10:35 AM,51.8,33.8,50,30.28,10.0,East,6.9,-,N/A,,Clear,90,2013-03-29 15:35:00
10:55 AM,51.8,33.8,50,30.28,10.0,ESE,6.9,-,N/A,,Clear,120,2013-03-29 15:55:00
11:15 AM,53.6,35.6,51,30.28,10.0,ESE,9.2,-,N/A,,Clear,120,2013-03-29 16:15:00
11:55 AM,55.4,35.6,47,30.28,10.0,East,6.9,-,N/A,,Clear,100,2013-03-29 16:55:00
12:15 PM,57.2,37.4,48,30.27,10.0,ESE,9.2,-,N/A,,Clear,110,2013-03-29 17:15:00
12:35 PM,57.2,37.4,48,30.27,10.0,East,6.9,-,N/A,,Clear,90,2013-03-29 17:35:00
12:55 PM,57.2,35.6,44,30.27,10.0,ENE,4.6,-,N/A,,Clear,70,2013-03-29 17:55:00
1:15 PM,59.0,35.6,42,30.26,10.0,East,6.9,-,N/A,,Clear,100,2013-03-29 18:15:00
1:35 PM,59.0,33.8,39,30.25,10.0,East,5.8,-,N/A,,Clear,80,2013-03-29 18:35:00
1:55 PM,59.0,32.0,36,30.25,10.0,East,5.8,-,N/A,,Clear,90,2013-03-29 18:55:00
2:15 PM,60.8,32.0,34,30.24,10.0,ENE,5.8,-,N/A,,Clear,70,2013-03-29 19:15:00
2:35 PM,60.8,30.2,31,30.23,10.0,North,3.5,9.2,N/A,,Clear,350,2013-03-29 19:35:00
2:55 PM,60.8,26.6,27,30.22,10.0,SE,3.5,-,N/A,,Clear,130,2013-03-29 19:55:00
3:15 PM,60.8,26.6,27,30.22,10.0,East,6.9,-,N/A,,Clear,100,2013-03-29 20:15:00
3:35 PM,62.6,26.6,26,30.21,10.0,East,10.4,-,N/A,,Clear,90,2013-03-29 20:35:00
3:55 PM,62.6,24.8,24,30.21,10.0,ENE,10.4,-,N/A,,Clear,70,2013-03-29 20:55:00
4:15 PM,62.6,23.0,22,30.20,10.0,East,4.6,-,N/A,,Clear,90,2013-03-29 21:15:00
4:35 PM,60.8,24.8,25,30.20,10.0,ENE,6.9,-,N/A,,Clear,70,2013-03-29 21:35:00
4:55 PM,60.8,26.6,27,30.20,10.0,SE,4.6,-,N/A,,Clear,130,2013-03-29 21:55:00
5:15 PM,62.6,26.6,26,30.20,10.0,SE,5.8,-,N/A,,Clear,130,2013-03-29 22:15:00
5:35 PM,60.8,23.0,23,30.19,10.0,NE,4.6,-,N/A,,Clear,40,2013-03-29 22:35:00
5:55 PM,60.8,28.4,29,30.20,10.0,ESE,4.6,-,N/A,,Clear,120,2013-03-29 22:55:00
6:15 PM,60.8,28.4,29,30.20,10.0,Calm,Calm,-,N/A,,Clear,0,2013-03-29 23:15:00
6:35 PM,59.0,28.4,31,30.19,10.0,ESE,3.5,-,N/A,,Clear,120,2013-03-29 23:35:00
6:55 PM,57.2,30.2,36,30.20,10.0,ESE,3.5,-,N/A,,Clear,120,2013-03-29 23:55:00
7:15 PM,57.2,30.2,36,30.19,10.0,East,4.6,-,N/A,,Clear,100,2013-03-30 00:15:00
7:35 PM,55.4,30.2,38,30.19,10.0,ESE,3.5,-,N/A,,Clear,110,2013-03-30 00:35:00
7:55 PM,55.4,30.2,38,30.19,10.0,Calm,Calm,-,N/A,,Clear,0,2013-03-30 00:55:00
8:15 PM,55.4,28.4,36,30.19,10.0,SE,3.5,-,N/A,,Clear,140,2013-03-30 01:15:00
8:35 PM,53.6,30.2,41,30.20,10.0,SE,3.5,-,N/A,,Clear,140,2013-03-30 01:35:00
8:55 PM,51.8,30.2,44,30.20,10.0,SE,3.5,-,N/A,,Clear,140,2013-03-30 01:55:00
9:15 PM,51.8,30.2,44,30.21,10.0,SE,4.6,-,N/A,,Clear,140,2013-03-30 02:15:00
9:35 PM,51.8,30.2,44,30.21,10.0,SE,3.5,-,N/A,,Clear,140,2013-03-30 02:35:00
9:55 PM,51.8,32.0,47,30.21,10.0,SE,3.5,-,N/A,,Clear,140,2013-03-30 02:55:00
10:15 PM,50.0,32.0,50,30.21,10.0,SSE,5.8,-,N/A,,Clear,150,2013-03-30 03:15:00
10:35 PM,51.8,33.8,50,30.21,10.0,SSE,4.6,-,N/A,,Clear,160,2013-03-30 03:35:00
10:55 PM,50.0,33.8,54,30.21,10.0,SSE,3.5,-,N/A,,Clear,160,2013-03-30 03:55:00
11:15 PM,48.2,33.8,58,30.20,10.0,SSE,4.6,-,N/A,,Clear,150,2013-03-30 04:15:00
11:35 PM,48.2,35.6,62,30.20,10.0,SSE,4.6,-,N/A,,Clear,160,2013-03-30 04:35:00
11:55 PM,48.2,35.6,62,30.19,10.0,SSE,5.8,-,N/A,,Clear,160,2013-03-30 04:55:00